This is the latest recevied weather packets stored in our database for station/object KD9CCP. If no packets are shown the sender has not sent any weather packets the latest 10 day(s).
| Time | Temp. | Humidity | Pressure | Rain* | Wind** | Luminosity | Snow |
|---|---|---|---|---|---|---|---|
| 1777896855 | 12.78° C | 51% | 995.5 hPa | 0 mm | - | 24 W/m² | - |
| 1777896553 | 12.22° C | 51% | 995.6 hPa | 0 mm | - | 22 W/m² | - |
| 1777896250 | 12.22° C | 52% | 995.6 hPa | 0 mm | - | 20 W/m² | - |
| 1777895948 | 12.22° C | 51% | 995.6 hPa | 0 mm | - | 15 W/m² | - |
| 1777895645 | 12.22° C | 52% | 995.8 hPa | 0 mm | - | 17 W/m² | - |
| 1777895343 | 11.67° C | 52% | 996 hPa | 0 mm | - | 17 W/m² | - |
| 1777895041 | 11.67° C | 53% | 995.8 hPa | 0 mm | - | 16 W/m² | - |
| 1777894737 | 11.67° C | 53% | 996.3 hPa | 0 mm | - | 13 W/m² | - |
| 1777894434 | 11.67° C | 52% | 996.2 hPa | 0 mm | - | 11 W/m² | - |
| 1777894132 | 11.11° C | 54% | 996.2 hPa | 0 mm | - | 8 W/m² | - |
| 1777893828 | 11.11° C | 54% | 996.2 hPa | 0 mm | - | 6 W/m² | - |
| 1777893524 | 11.11° C | 54% | 996.5 hPa | 0 mm | - | 6 W/m² | - |
| 1777893221 | 10.56° C | 55% | 996.5 hPa | 0 mm | - | 5 W/m² | - |
| 1777892918 | 10.56° C | 56% | 996.5 hPa | 0 mm | - | 3 W/m² | - |
| 1777892614 | 10.56° C | 55% | 996.4 hPa | 0 mm | - | 1 W/m² | - |
| 1777892310 | 10.56° C | 55% | 996.8 hPa | 0 mm | - | 1 W/m² | - |
| 1777892006 | 10.56° C | 54% | 996.8 hPa | 0 mm | - | 0 W/m² | - |
| 1777891704 | 10.56° C | 56% | 996.9 hPa | 0 mm | - | 0 W/m² | - |
| 1777891400 | 10.56° C | 57% | 997.2 hPa | 0 mm | - | 0 W/m² | - |
| 1777891096 | 10° C | 55% | 997.1 hPa | 0 mm | - | 0 W/m² | - |
| 1777890790 | 10° C | 58% | 997.2 hPa | 0 mm | - | 0 W/m² | - |
| 1777890487 | 10° C | 54% | 997.3 hPa | 0 mm | - | 0 W/m² | - |
| 1777890182 | 10° C | 55% | 997.4 hPa | 0 mm | - | 0 W/m² | - |
| 1777889879 | 10° C | 54% | 997.5 hPa | 0 mm | - | 0 W/m² | - |
| 1777889577 | 10° C | 58% | 997.7 hPa | 0 mm | - | 0 W/m² | - |
* Rain latest hour (hover to see other rain measurements)
** Current wind speed in m/s (hover to see current wind gust speed)